Погода в Тбилиси

Погода в Тбилиси : погода сейчас, прогноз погоды и архив. Всё, что Вы хотите узнать о погоде в Тбилиси!

Поиск расширенной информации на нашем сайте:

Другие новости

Новости СМИ2

Главная страница сайта

Новости сайта

03.07.2017

Напоминаем, что на нашем специализированном сайте Метеоцентр.Азия вы можете получить высокодетализированные автоматические прогнозы погоды по пунктам России, СНГ и мира в авиационном формате (включающие направление и скорость ветра, видимость, явления погоды, количество и форму облачности, нижнюю и верхнюю границу облачности).

Рекомендуем: ауди БМВ мерседес кузовной ремонт

Погода в Тбилиси - сегодня

Время (UTC), дата Ветер
(°,м/с) 
Видим.   Явления Облачность Т
(°С)
Тd
(°С)
f(%) Тe
(°С)
Pmin
(гПа)
dP
(гПа)
Po
(мм)
O2
(г/м3)
Тmin Tmax R s Состояние
почвы
06 13.01.18 290 (З) 20000 м  слаб. дождь  10/10 600 м 
[Ns]
+6.3 +2.4 76 +5  1021.7  1.8  728  286           
09 13.01.18 140 (ЮВ) 4000 м  дымка  10/10 600 м 
[Sc diur, vesp]
+7 +2.1 71 +5  1022.4  0.9  728  286           
12 13.01.18 110 (В) 2000 м  слаб. дождь  10/10 600 м 
[Ns]
+4.2 +2.2 87 +1  1023.3  0.2  728  289           
18 13.01.18 140 (ЮВ) н/о  слаб. дождь  10/10 600 м 
[Ns]
+3.4 +2.1 91 +1  1026.2  1.1  730  290    +7       
21 13.01.18 140 (ЮВ) н/о  слаб. дождь  10/10 600 м 
[Ns]
+3 +2 93 +1  1026.5  0.4  731  291           
00 14.01.18 140 (ЮВ) н/о  слаб. дождь  10/10 600 м 
[Ns]
+3 +2.2 94 1026.5  -0.1  731  291           
03 14.01.18 160 (Ю) н/о  слаб. дождь  10/10 600 м 
[Ns]
+2.6 +1.8 94 1026.2  -0.5  730  291         
06 14.01.18 140 (ЮВ) 2000 м  слаб. дождь со снегом  10/10 600 м 
[Ns]
+2.3 +1 91 1026.3  0.1  730  292         
09 14.01.18 160 (Ю) 2000 м  слаб. дождь{снег}  10/10 600 м 
[Ns]
+2.5 +1.5 93 1025.3  -0.9  730  291           
12 14.01.18 160 (Ю) 20000 м  слаб. дождь  10/10 600 м 
[Ns]
+2.2 +1.2 93 1024.8  -0.5  729  291           
18 14.01.18 140 (ЮВ) н/о    10/10 600 м 
[Ns]
+1.5 +0.4 92 1025.9  0.9  730  292    +2.6     
21 14.01.18 тихо ()   н/о    10/10 600 м 
[Ns]
+1.5 +0.4 92 +2  1026  0.5  730  292           
00 15.01.18 тихо ()   н/о    10/10 600 м 
[Ns]
+1.3 +0.2 92 +1  1026.3  -0.1  730  293           
03 15.01.18 150 (ЮВ) 1-1{02}  н/о    н/о 
[]
+0.9 -0.3 92 +2  1028.2  0.6  731  294      0.2     
06 15.01.18 тихо ()   4000 м  дымка  10/10 600 м 
[Ns]
+1.4 -0.3 88 +1  1028  1.6  731  293           
09 15.01.18 140 (ЮВ) 4000 м    10/10 600 м 
[Ns]
+3.1 -0.4 78 +2  1029.2  1.6  732  292           
12 15.01.18 160 (Ю) 4000 м    10/10 600 м 
[Ns]
+3.7 -0.9 72 +2  1029  -0.2  732  291           
15 15.01.18 тихо ()   н/о    10/10 600 м 
[Ns]
+3 -1.2 74 +3  1029.8  0.7  733  292    +3.8       
18 15.01.18 110 (В) н/о    10/10 600 м 
[Ns]
+2.8 -1.4 74 +1  1030.5  0.5  733  293    +3.8       
21 15.01.18 140 (ЮВ) н/о    10/10 600 м 
[Ns]
+2.4 -0.9 79 +1  1030.6  0.1  733  293           
00 16.01.18 140 (ЮВ) н/о    10/10 600 м 
[Ns]
+2.2 -0.6 82 +1  1029.9  -0.7  733  293           
03 16.01.18 140 (ЮВ) н/о    10/10 600 м 
[Ns]
+2 -0.8 82 +1  1028.8  -1  732  293           
06 16.01.18 140 (ЮВ) 4000 м    10/10 600 м 
[Ns]
+2 -0.5 83 1029.2  0.4  732  293           
09 16.01.18 140 (ЮВ) 4000 м  слаб. дождь со снегом  10/10 600 м 
[Ns]
+2.2 +0.6 89 1028.6  -0.6  732  292           
12 16.01.18 140 (ЮВ) 4000 м  дымка{дождь, ливн. осадки}  10/10 600 м 
[Ns]
+3.2 -0.6 76 +1  1026.7  -1.6  731  291           
Время (UTC), дата Ветер
(°,м/с) 
Видим.   Явления Облачность Т
(°С)
Тd
(°С)
f(%) Тe
(°С)
Pmin
(гПа)
dP
(гПа)
Po
(мм)
O2
(г/м3)
Тmin Tmax R s Состояние
почвы

Для получения пояснительной информации подведите курсор к названию столбца.

ПОГОДА в Тбилиси - архив

Всё, что Вы хотите узнать о погоде в Тбилиси - удобно и подробно!

Выберите нужную дату (начиная с 1 января 2015* года) и нажмите кнопку "Найти".
Будут отображены архивные сводки погоды по пункту Тбилиси, начиная с указанной даты.


Отображать данные в формате CSV (для использования в таблицах Excel)


Внимание! Наш архив погоды предназначен исключительно для личного некоммерческого использования в познавательных целях. Если Вам необходимы официальные справки о состоянии погоды (для производственных, юридических, коммерческих и т.п. целей), обращайтесь в органы Росгидромета.

*Примечание: данная дата относится к архиву по метеостанциям СССР (Россия, СНГ, Балтия).
Архив по метеостанциям Зарубежной Европы и Азии (кроме Китая) хранится 10 дней, по другим регионам земного шара (Китай, Африка, Америка, Австралия, Океания) - 1 день.

Тбилиси - район местоположения метеостанции


Название, широта, долгота, высота метеостанции:
Тбилиси 41.7°ш. 44.8°д. 403 м над ур. моря [Грузия]

Дополнительная информация

В oтличие oт бoльшинства пoгoдных сайтoв мы публикуем пoдрoбную метеoинфoрмацию в детальнoм прoфессиoнальнoм фoрмате.

Характеристики температуры и влажнoсти вoздуха измеряются на высoте 2 м в тени вдали oт зданий и деревьев.
Скoрoсть ветра измеряется на высoте 10 м (на урoвне рoста челoвека скoрoсть ветра ниже в 1.5-2 раза). Если метеoстанция нахoдится в гoрoде или в лесу, тo скoрoсть ветра занижена на 2-4 м/с пo сравнению с oткрытым местoм. Скoрoсть ветра над акватoриями крупных рек и oзёр, а также на вершинах хoлмoв на 2-5 м/с выше, чем в oбычных услoвиях.
Атмoсфернoе давление в разных тoчках местнoсти мoжет значительнo oтличаться oт давления на метеoстанции, в зависимoсти oт услoвий рельефа (при пoдъёме на 10 м давление пoнижается примернo на 1 мм рт.ст.).